Theta_e
318 317 317 316 317 317 316 316 315 315 315 316 315 315 316 316 316 315 315 315 315 315 315 315 315 316 314 310 310 322 327 325 321 318 314 310 306 305 301 304 306 304 305 307 308 308 309
317 317 316 316 317 316 316 315 315 315 315 315 316 315 315 315 315 315 315 315 315 315 315 315 315 315 310 303 320 323 320 323 320 318 315 313 310 309 305 304 304 307 306 306 307 307 307
317 316 316 317 316 316 316 316 315 315 315 315 315 315 315 315 315 315 315 315 314 315 315 315 316 314 308 309 320 320 320 321 320 319 314 315 313 309 307 303 306 306 303 305 306 306 305
316 317 316 316 316 316 315 315 315 315 315 315 314 314 314 314 313 314 315 314 314 314 315 317 318 313 305 320 322 319 321 320 321 321 318 316 312 309 307 308 304 301 302 297 304 305 306
316 317 317 316 316 316 315 315 315 315 315 315 314 314 314 312 312 313 314 313 313 315 316 315 314 310 307 320 314 319 319 313 317 318 318 314 310 306 306 300 299 301 295 297 299 305 304
317 317 317 317 316 316 315 315 315 314 314 314 313 313 313 312 312 313 312 312 314 314 315 315 312 305 310 310 315 315 318 315 313 314 307 306 304 301 302 299 293 296 296 298 298 303 303
316 315 315 315 316 315 314 314 314 313 312 311 312 312 312 312 312 312 311 311 309 305 308 307 308 308 312 315 317 314 315 313 312 307 299 303 298 296 299 301 301 301 300 299 301 304 302
313 312 312 312 312 314 314 314 313 312 311 310 310 310 311 311 312 311 310 306 309 314 304 311 311 312 315 316 309 311 315 308 304 299 301 299 296 302 303 302 300 300 299 299 302 304 303
311 312 312 312 312 312 313 314 313 311 310 310 310 310 311 311 311 311 311 311 317 315 305 307 311 311 312 314 309 309 311 308 302 299 299 297 300 303 302 300 299 299 298 299 299 302 304
311 311 311 312 312 312 313 312 311 310 310 309 309 310 310 311 308 313 306 313 316 317 299 299 306 309 312 313 306 315 312 308 303 299 300 299 303 301 300 299 300 296 302 301 300 299 293
310 310 310 311 312 311 312 311 310 310 310 309 309 310 310 310 307 305 310 315 317 316 284 301 306 316 313 309 309 309 314 307 301 300 300 297 299 299 298 299 301 298 303 302 301 298 298
308 308 309 310 310 310 310 310 310 310 309 309 309 309 309 308 311 311 314 314 311 296 285 297 307 306 306 308 308 310 310 310 308 303 302 300 304 302 302 302 302 304 302 302 301 299 291
307 307 307 309 309 309 309 309 309 309 309 308 308 308 307 309 306 315 314 308 293 287 298 296 298 305 305 303 305 305 304 302 298 295 296 298 300 304 305 300 303 303 299 292 289 290 289
306 306 307 307 308 308 308 308 308 308 308 308 307 305 308 313 316 314 312 299 286 292 294 300 299 303 298 303 303 302 302 299 302 301 297 294 292 300 304 301 300 301 300 292 286 287 291
306 306 306 306 308 308 308 307 307 307 307 306 305 310 310 313 316 314 304 292 291 294 298 296 299 296 297 302 299 298 299 300 301 302 296 295 295 303 303 304 304 300 297 303 295 297 293
305 305 306 307 307 307 307 307 307 307 307 306 305 306 307 315 318 309 298 291 295 299 300 298 292 298 295 297 295 292 296 303 301 304 305 301 294 300 302 304 304 302 304 295 298 288 287
306 306 307 308 308 308 308 307 307 307 306 305 305 301 313 319 313 300 293 294 297 302 302 298 296 296 296 296 297 293 293 301 306 304 305 303 299 297 300 298 297 299 298 301 301 298 291
306 306 306 307 308 308 308 308 307 306 305 304 302 294 314 314 297 298 296 298 299 302 304 302 301 300 299 297 294 292 294 298 302 306 300 304 300 295 296 301 303 303 301 300 297 293 297
306 306 306 307 307 307 307 307 307 306 305 303 296 299 309 309 292 295 297 298 299 300 300 299 299 302 300 297 293 296 296 301 306 306 303 306 299 293 293 298 304 300 302 303 303 302 293
304 305 305 306 306 306 306 307 307 306 306 303 298 292 298 308 305 296 294 294 295 301 301 302 299 304 300 296 297 295 295 299 306 307 311 309 301 298 293 296 301 298 300 301 300 291 294
303 303 303 304 305 306 306 307 307 306 306 303 297 295 298 293 294 295 297 297 295 295 300 299 300 301 298 293 294 292 293 296 304 306 307 306 298 301 298 300 300 300 299 300 298 298 294
302 302 303 305 305 306 306 306 307 306 305 302 293 292 295 295 296 295 296 296 294 295 297 296 295 298 299 292 297 291 292 294 302 307 304 307 298 301 296 299 299 295 300 301 301 300 300
302 302 302 304 304 305 305 305 306 306 305 300 303 302 296 292 293 291 293 295 295 298 298 297 297 298 294 295 299 302 300 300 302 303 303 303 301 298 293 298 297 293 298 299 300 300 299
301 301 302 303 304 305 305 306 306 307 306 305 301 297 291 288 289 289 292 296 297 296 293 297 299 296 297 300 302 302 303 301 302 303 308 302 301 300 293 296 287 297 302 300 299 300 301
301 301 301 303 303 304 305 306 306 306 307 306 306 297 291 288 290 292 291 293 297 297 294 295 296 299 302 298 295 292 292 292 296 301 304 307 302 297 292 291 294 296 299 297 298 298 302
300 301 302 303 304 304 305 306 307 307 307 307 305 303 296 289 292 295 292 296 294 294 293 293 299 304 301 295 294 289 288 291 290 294 304 304 305 299 295 289 285 297 303 307 304 292 304
300 301 302 302 303 304 304 306 307 307 307 307 305 304 298 289 295 296 290 289 299 297 291 291 297 298 302 295 292 290 291 297 290 291 294 296 297 294 293 292 295 302 303 305 293 292 302
301 301 302 303 303 304 305 306 307 307 306 306 305 307 298 293 295 297 297 294 299 298 293 297 296 299 298 294 293 293 294 296 295 296 295 293 291 293 295 290 287 304 302 296 300 304 303
302 302 302 303 304 304 305 306 307 307 307 307 303 311 306 296 296 303 305 307 305 305 301 303 299 298 299 297 298 298 294 297 295 290 299 292 297 295 295 295 304 306 304 305 305 302 302
Wind_Speed
9 10 12 13 12 12 10 11 14 13 13 14 16 18 19 16 16 16 17 17 16 15 14 12 12 11 11 13 21 8 16 15 15 17 18 17 18 19 21 20 20 21 22 19 20 23 22
9 11 13 12 12 12 12 13 14 15 15 16 15 16 17 16 16 16 15 15 16 15 16 14 12 11 12 22 15 12 13 17 16 19 18 19 14 16 18 21 19 20 18 19 20 20 23
12 11 12 12 11 12 11 12 14 15 15 15 15 16 17 17 17 16 15 15 15 15 18 18 16 12 17 26 9 8 14 18 20 19 18 18 19 14 17 14 18 17 21 17 20 20 20
14 14 11 11 12 13 12 13 13 14 15 15 16 17 17 18 17 17 17 17 16 18 21 20 16 12 13 14 20 22 13 17 15 14 15 11 16 16 18 13 11 16 21 20 20 21 19
12 13 14 14 14 15 14 14 15 16 14 16 17 18 16 18 18 18 17 18 20 20 13 6 10 12 12 7 22 23 21 17 15 13 12 14 16 17 18 16 17 18 17 22 20 20 20
14 15 16 17 18 16 16 15 16 16 17 19 20 20 18 18 20 18 19 20 19 10 8 6 5 9 11 15 16 21 21 21 15 14 13 15 13 18 18 17 17 17 19 17 19 18 22
17 18 19 19 17 16 16 15 15 16 18 21 22 21 20 19 20 19 17 11 8 7 9 13 15 13 9 9 10 17 22 21 20 18 18 23 18 21 24 23 20 18 14 18 14 17 20
16 17 17 17 19 17 15 15 14 16 18 20 21 21 20 21 21 20 15 8 12 11 17 27 27 25 25 10 13 18 22 20 19 21 24 16 23 23 21 20 20 19 16 13 14 13 18
16 16 16 17 18 17 17 16 15 16 18 18 18 18 20 21 22 15 9 15 15 17 12 20 27 28 27 25 20 24 27 27 23 25 26 21 18 22 18 17 19 20 19 15 16 11 15
17 18 19 18 18 17 18 15 15 19 20 19 19 19 20 23 17 9 15 9 6 6 12 20 23 20 29 23 31 21 30 26 17 24 25 23 21 20 21 22 20 20 18 16 17 16 14
19 19 19 19 18 18 18 17 18 21 21 21 21 19 19 12 16 10 11 8 8 5 11 12 17 5 12 29 11 31 30 28 23 21 20 21 21 19 22 21 20 17 17 20 16 17 19
19 20 20 20 20 20 20 20 20 22 22 23 22 22 19 15 14 18 16 10 7 10 15 10 9 14 18 27 31 27 28 30 22 22 21 22 19 22 16 20 20 20 17 15 15 15 16
19 20 21 20 20 20 20 21 22 22 22 23 27 25 21 15 12 3 9 10 11 13 10 19 17 17 16 18 27 25 33 30 27 24 23 22 23 17 18 18 23 19 16 13 13 15 15
20 20 20 20 20 20 20 21 22 22 22 24 29 32 19 14 16 13 8 12 20 13 26 27 15 19 13 8 19 26 29 28 32 26 15 20 22 21 17 23 20 20 20 15 21 13 15
20 20 20 21 20 21 21 21 22 23 23 24 34 12 12 11 8 7 11 16 20 23 25 26 24 18 22 8 10 17 15 27 30 30 24 16 21 23 19 17 20 18 21 23 18 12 8
19 20 20 21 21 21 21 21 23 23 23 24 13 16 16 5 8 7 11 22 28 26 24 25 17 21 14 6 8 6 9 16 23 31 24 13 12 16 23 17 18 17 14 13 12 9 12
19 20 20 20 21 21 22 22 23 23 23 27 11 9 8 6 7 5 13 21 25 23 22 24 19 19 11 1 5 12 9 17 29 30 23 17 13 16 14 22 21 18 12 11 17 8 12
19 20 20 21 22 23 23 22 22 22 22 14 8 9 10 11 4 5 13 21 14 19 14 9 10 16 17 4 5 5 6 9 34 25 27 24 9 12 18 17 21 17 11 15 10 8 10
20 20 21 21 21 21 23 23 22 21 18 10 7 15 13 12 8 12 10 18 10 15 10 9 12 17 11 15 8 11 10 14 26 19 28 20 8 10 6 10 10 14 12 8 5 5 10
22 21 21 22 22 22 23 23 24 21 19 10 8 10 10 3 6 14 14 15 12 7 10 10 7 16 4 7 5 4 6 6 17 32 19 13 13 17 9 6 15 19 17 13 8 5 10
21 22 22 22 21 22 23 24 24 21 19 11 4 7 12 8 14 17 17 15 14 10 9 3 10 7 8 6 11 4 2 7 23 2 14 15 12 9 10 4 4 11 15 11 13 12 10
21 22 22 22 21 22 21 22 24 22 21 8 5 5 4 17 16 21 15 12 8 11 11 11 10 7 6 6 6 6 6 10 10 12 17 8 10 13 8 9 10 10 12 17 15 13 14
22 22 22 22 21 21 21 21 22 21 16 4 8 8 6 10 13 14 13 18 19 11 7 6 10 6 8 6 7 4 5 6 7 8 12 15 11 11 10 11 8 5 9 10 6 4 4
22 22 21 22 23 21 22 21 21 19 16 6 3 3 4 8 9 11 23 28 15 9 6 8 12 4 4 7 4 6 4 8 12 5 12 8 14 8 8 11 10 9 3 4 10 6 3
21 21 21 21 23 21 21 22 21 19 18 8 5 3 3 5 10 18 20 21 13 10 9 6 9 6 6 6 4 5 3 7 3 5 5 13 10 6 8 9 13 8 6 6 12 10 7
21 20 21 22 22 22 22 22 21 19 17 8 6 2 3 5 4 15 16 17 5 5 3 6 9 5 3 3 5 5 4 7 5 4 8 11 8 4 9 8 5 13 8 10 14 9 10
20 22 23 22 23 23 24 24 24 21 15 8 5 2 2 3 5 9 5 7 11 8 3 6 7 3 7 4 3 1 4 8 7 7 11 8 8 6 9 4 8 9 7 3 11 5 9
19 21 23 22 22 22 23 25 22 15 13 7 7 0 2 3 9 4 5 9 10 7 4 6 6 2 4 4 4 4 3 5 6 8 9 7 4 4 6 4 5 8 8 2 9 9 10
18 20 21 21 21 21 23 24 18 16 14 10 4 1 2 3 7 16 15 11 13 10 6 7 4 6 6 4 6 6 4 3 10 5 6 6 4 3 2 6 12 16 16 14 10 11 10
Wind_Direction
22 11 4 2 352 347 345 349 340 339 335 329 334 333 331 327 324 322 316 313 309 304 299 294 297 294 287 242 248 159 135 156 173 195 207 213 220 222 226 230 231 237 247 243 243 248 255
8 6 358 348 347 343 338 339 336 334 333 330 325 325 322 321 317 312 306 304 301 295 292 283 279 276 254 259 264 211 194 168 193 207 212 219 225 228 241 243 240 235 242 249 257 234 242
348 358 348 344 336 330 334 333 332 328 328 326 323 319 318 317 316 313 307 302 298 293 289 282 272 244 256 240 292 215 217 192 213 205 215 225 242 254 233 246 249 251 259 230 239 249 236
350 344 330 324 318 324 321 317 322 322 320 321 322 319 317 318 316 311 309 302 298 295 292 280 257 216 253 243 225 252 213 194 201 210 233 247 235 250 234 238 236 242 238 246 233 231 237
335 330 321 321 321 323 317 313 310 315 312 321 319 315 312 318 314 309 303 300 294 290 289 256 181 212 254 170 221 213 218 207 203 214 222 239 224 229 221 230 235 226 235 231 245 236 219
329 327 327 328 328 328 329 326 327 328 332 328 324 318 317 318 315 308 305 291 290 281 243 215 291 212 245 235 199 208 207 218 193 193 201 200 205 218 222 213 226 228 218 237 256 218 233
350 347 342 337 332 334 335 333 332 333 332 328 326 321 321 317 310 308 310 302 201 187 219 215 192 238 273 213 135 189 187 184 199 192 194 198 208 208 210 217 234 268 242 240 241 251 241
344 341 338 335 329 323 320 321 322 324 326 324 324 321 316 311 307 303 288 251 287 318 288 222 251 236 257 275 203 179 180 181 200 201 207 180 217 216 226 208 229 242 252 256 260 252 246
341 338 336 337 333 323 317 314 320 323 323 320 314 310 309 306 304 285 247 262 290 310 270 266 236 225 231 221 223 180 186 202 193 207 201 207 212 225 210 217 215 224 239 244 261 260 270
343 341 340 336 328 321 319 323 320 322 317 313 310 310 312 319 281 348 282 291 273 251 274 269 210 239 214 216 224 206 194 202 196 212 215 221 226 194 215 218 214 220 220 248 263 272 267
345 341 339 334 334 342 333 322 319 322 319 316 315 313 308 306 302 273 300 315 336 227 274 323 133 117 206 203 172 217 180 207 211 211 216 208 226 205 210 214 218 231 225 219 232 254 268
344 343 344 342 343 340 336 331 325 321 322 320 313 311 306 285 249 251 262 287 260 236 250 261 174 190 213 201 227 186 186 216 222 219 207 226 205 229 215 213 221 219 238 249 231 237 247
347 345 343 341 341 337 332 327 323 320 318 316 312 308 293 275 255 331 210 219 227 234 279 248 255 211 229 188 214 225 189 196 213 216 212 205 225 210 210 209 208 216 222 223 226 229 238
349 348 345 342 336 333 331 328 324 320 315 313 314 306 276 249 219 251 250 222 244 248 238 260 274 287 162 320 207 227 198 194 212 216 211 198 206 199 197 216 211 208 216 227 215 219 227
345 345 341 338 336 333 330 328 327 324 322 319 310 299 289 258 218 198 228 227 247 250 263 278 284 281 271 150 136 3 241 206 202 215 219 214 214 193 208 220 230 204 218 236 256 306 250
341 341 336 333 332 330 330 328 327 326 328 321 307 292 267 177 169 206 233 251 267 272 263 270 271 294 253 272 157 163 290 245 236 207 223 213 239 200 195 201 230 242 247 248 242 193 280
337 334 335 335 335 330 327 328 328 330 332 317 292 295 78 78 123 222 239 249 253 253 256 276 269 241 281 231 223 180 212 280 231 208 199 211 229 209 183 204 214 223 179 255 267 294 252
335 336 334 333 333 336 332 329 330 332 336 316 301 286 135 157 227 235 243 268 329 292 294 282 287 265 273 181 186 230 241 243 303 191 196 198 234 183 205 197 219 255 279 190 234 253 280
336 337 337 335 334 335 337 336 330 331 341 326 282 287 264 208 258 265 268 269 286 260 295 311 268 280 134 192 216 217 234 252 271 279 194 186 204 172 204 290 215 220 219 270 46 335 192
336 336 335 336 335 333 335 337 334 332 328 324 290 295 315 213 294 305 312 308 286 308 277 272 249 283 188 173 226 271 255 331 290 260 181 193 213 195 208 183 196 205 207 205 148 85 261
335 334 331 330 333 333 335 334 336 333 325 309 273 300 4 323 320 308 302 287 317 2 326 40 271 251 196 232 202 196 188 248 265 173 146 166 205 182 128 205 129 272 200 212 232 229 245
336 334 332 331 335 336 334 332 335 332 326 283 298 330 295 292 320 330 319 305 344 337 324 337 311 40 231 176 224 160 192 228 188 165 174 164 201 207 169 151 106 273 204 180 215 201 217
334 333 331 332 333 333 333 330 332 337 334 319 333 324 295 308 328 324 313 335 322 11 25 286 303 350 37 24 346 157 159 273 295 134 178 197 148 156 180 199 194 228 180 192 193 229 241
336 334 332 331 331 331 329 328 328 332 340 313 299 302 289 298 330 316 315 321 324 24 316 332 4 34 30 328 88 90 131 37 336 288 257 181 160 157 151 151 196 68 32 340 171 132 207
333 334 331 331 331 331 329 327 325 327 325 311 313 293 282 295 316 298 325 319 336 39 3 323 30 24 331 325 157 159 127 133 113 289 201 142 135 172 152 172 101 131 130 161 155 110 41
335 330 330 331 330 327 326 325 327 327 319 306 293 224 268 310 314 315 332 320 329 18 353 335 143 171 299 306 238 192 95 136 163 89 62 125 138 141 146 180 156 103 83 49 112 112 121
332 331 329 326 325 329 327 326 326 319 324 312 287 189 271 257 264 310 299 300 341 353 64 290 318 257 207 298 35 23 99 114 116 123 142 130 107 181 128 173 97 100 106 210 216 132 74
326 327 327 326 325 331 331 330 335 347 345 327 296 293 299 269 284 262 277 297 336 337 12 312 326 19 317 345 354 82 38 59 73 106 128 123 125 173 145 134 111 141 143 19 121 112 95
323 324 323 323 325 329 332 331 330 339 340 328 292 130 282 232 284 312 298 296 305 316 312 308 58 305 7 344 7 35 20 91 135 98 43 128 122 159 62 82 77 82 99 90 89 98 81